K9JVA Weather Reports


Display with metric or nautical units.
time (UTC)temp
F
wind
direction
speed
MPH
gust
MPH
rain 1hr
in
rain 24hr
in
rain mn
in
humidity
%
barometer
mb
20260505023831 66 0.0 0.0 0.00 0.00 0.00 64 1005.7
20260505023231 66 0.0 0.0 0.00 0.00 0.00 64 1005.6
20260505022731 66 0.0 0.0 0.00 0.00 0.00 64 1005.6
20260505022448 66 0.0 0.0 0.00 0.00 0.00 64 1005.6
20260505021731 67 0.0 0.0 0.00 0.00 0.00 64 1005.4
20260505021231 66 0.0 0.0 0.00 0.00 0.00 63 1005.4
20260505020731 67 0.0 0.0 0.00 0.00 0.00 63 1005.3
20260505020456 67 0.0 0.0 0.00 0.00 0.00 63 1005.2
20260505015732 67 0.0 0.0 0.00 0.00 0.00 63 1005.1
20260505015233 67 0.0 0.0 0.00 0.00 0.00 63 1005.1
20260505014851 67 0.0 0.0 0.00 0.00 0.00 62 1005.1
20260505014134 67 0.0 0.0 0.00 0.00 0.00 62 1005.1
20260505013632 68 0.0 0.0 0.00 0.00 0.00 62 1005.0
20260505013132 68 0.0 0.0 0.00 0.00 0.00 62 1004.9
20260505012632 68 0.0 0.0 0.00 0.00 0.00 61 1004.9
20260505012132 68 0.0 0.0 0.00 0.00 0.00 61 1004.8
20260505011634 68 0.0 0.0 0.00 0.00 0.00 61 1004.8
20260505011133 68 0.0 0.0 0.00 0.00 0.00 60 1004.9
20260505010849 69 0.0 0.0 0.00 0.00 0.00 60 1004.8
20260505010032 69 0.0 0.0 0.00 0.00 0.00 60 1004.8
20260505005534 69 0.0 0.0 0.00 0.00 0.00 58 1004.8
20260505004933 69 0.0 0.0 0.00 0.00 0.00 58 1004.7
20260505004433 70 0.0 0.0 0.00 0.00 0.00 57 1004.7
20260505003933 70 0.0 0.0 0.00 0.00 0.00 57 1004.7
20260505003434 70 0.0 0.0 0.00 0.00 0.00 57 1004.7
20260505002933 71 0.0 0.0 0.00 0.00 0.00 56 1004.7
20260505002433 71 0.0 0.0 0.00 0.00 0.00 55 1004.8
20260505001935 72 0.0 0.0 0.00 0.00 0.00 55 1004.7
20260505001434 72 0.0 0.0 0.00 0.00 0.00 54 1004.8
20260505000934 72 0.0 0.0 0.00 0.00 0.00 54 1004.9
20260505000334 73 0.0 0.0 0.00 0.00 0.00 53 1005.0
20260504235835 73 0.0 0.0 0.00 0.00 0.00 53 1005.1
20260504235817 73 0.0 0.0 0.00 0.00 0.00 51 1005.0
20260504234833 74 0.0 0.0 0.00 0.00 0.00 50 1005.2
20260504234334 74 0.0 0.0 0.00 0.00 0.00 50 1005.3
20260504233835 74 0.0 0.0 0.00 0.00 0.00 50 1005.4
20260504233334 74 0.0 0.0 0.00 0.00 0.00 50 1005.4
20260504232836 74 0.0 0.0 0.00 0.00 0.00 50 1005.3
20260504232335 75 0.0 0.0 0.00 0.00 0.00 50 1005.3
20260504231736 75 0.0 0.0 0.00 0.00 0.00 49 1005.4
20260504231135 75 0.0 0.0 0.00 0.00 0.00 50 1005.4
20260504230635 75 0.0 0.0 0.00 0.00 0.00 49 1005.4
20260504230137 75 0.0 0.0 0.00 0.00 0.00 49 1005.4
20260504225635 76 0.0 0.0 0.00 0.00 0.00 49 1005.5
20260504225331 76 0.0 0.0 0.00 0.00 0.00 49 1005.5
20260504224135 76 0.0 0.0 0.00 0.00 0.00 50 1005.5
20260504223637 75 0.0 0.0 0.00 0.00 0.00 50 1005.6
20260504223357 75 0.0 0.0 0.00 0.00 0.00 53 1005.6
20260504222855 75 0.0 0.0 0.00 0.00 0.00 54 1005.6
20260504222035 76 0.0 0.0 0.00 0.00 0.00 55 1005.5
20260504221659 76 0.0 0.0 0.00 0.00 0.00 54 1005.5
20260504220936 76 0.0 0.0 0.00 0.00 0.00 54 1005.5
20260504220436 76 0.0 0.0 0.00 0.00 0.00 54 1005.7
20260504220156 76 0.0 0.0 0.00 0.00 0.00 54 1005.9
20260504215436 76 0.0 0.0 0.00 0.00 0.00 53 1006.0
20260504214936 76 0.0 0.0 0.00 0.00 0.00 51 1006.1
20260504214437 76 0.0 0.0 0.00 0.00 0.00 51 1006.2
20260504213936 76 0.0 0.0 0.00 0.00 0.00 54 1006.1
20260504213436 76 0.0 0.0 0.00 0.00 0.00 51 1006.2
20260504213313 77 0.0 0.0 0.00 0.00 0.00 51 1006.2
20260504212337 77 0.0 0.0 0.00 0.00 0.00 51 1006.2
20260504211836 77 0.0 0.0 0.00 0.00 0.00 51 1006.3
20260504211337 77 0.0 0.0 0.00 0.00 0.00 53 1006.4
20260504211109 77 0.0 0.0 0.00 0.00 0.00 50 1006.5
20260504210337 77 0.0 0.0 0.00 0.00 0.00 51 1006.6
20260504205837 77 0.0 0.0 0.00 0.00 0.00 51 1006.6
20260504205338 77 0.0 0.0 0.00 0.00 0.00 51 1006.5
20260504204839 78 0.0 0.0 0.00 0.00 0.00 50 1006.5
20260504204337 79 0.0 0.0 0.00 0.00 0.00 50 1006.6
20260504203738 79 0.0 0.0 0.00 0.00 0.00 50 1006.9
20260504203238 77 0.0 0.0 0.00 0.00 0.00 51 1006.9
20260504202738 77 0.0 0.0 0.00 0.00 0.00 53 1006.9
20260504202239 77 0.0 0.0 0.00 0.00 0.00 50 1006.9
20260504201738 78 0.0 0.0 0.00 0.00 0.00 49 1007.0
20260504201239 79 0.0 0.0 0.00 0.00 0.00 50 1007.2
20260504201000 77 0.0 0.0 0.00 0.00 0.00 51 1007.1
20260504200240 77 0.0 0.0 0.00 0.00 0.00 50 1007.3
20260504195739 78 0.0 0.0 0.00 0.00 0.00 50 1007.4
20260504195138 78 0.0 0.0 0.00 0.00 0.00 49 1007.4
20260504194859 78 0.0 0.0 0.00 0.00 0.00 51 1007.7
20260504194138 77 0.0 0.0 0.00 0.00 0.00 53 1007.8
20260504193639 77 0.0 0.0 0.00 0.00 0.00 54 1008.0
20260504193404 76 0.0 0.0 0.00 0.00 0.00 56 1008.1
20260504192640 75 0.0 0.0 0.00 0.00 0.00 55 1008.1
20260504192139 74 0.0 0.0 0.00 0.00 0.00 56 1008.1
20260504191639 75 0.0 0.0 0.00 0.00 0.00 55 1008.2
20260504191139 75 0.0 0.0 0.00 0.00 0.00 56 1008.4
20260504190641 74 0.0 0.0 0.00 0.00 0.00 57 1008.5
20260504190140 73 0.0 0.0 0.00 0.00 0.00 60 1008.4
20260504185759 71 0.0 0.0 0.00 0.00 0.00 61 1008.6
20260504184942 71 0.0 0.0 0.00 0.00 0.00 61 1008.7
20260504184440 71 0.0 0.0 0.00 0.00 0.00 60 1008.7
20260504183940 71 0.0 0.0 0.00 0.00 0.00 58 1008.6
20260504183440 71 0.0 0.0 0.00 0.00 0.00 58 1008.6
20260504182940 72 0.0 0.0 0.00 0.00 0.00 58 1008.6
20260504182440 72 0.0 0.0 0.00 0.00 0.00 58 1008.4
20260504181941 72 0.0 0.0 0.00 0.00 0.00 57 1008.4
20260504181706 72 0.0 0.0 0.00 0.00 0.00 56 1008.3
20260504181201 72 0.0 0.0 0.00 0.00 0.00 57 1008.2
20260504180340 73 0.0 0.0 0.00 0.00 0.00 57 1008.0
20260504180111 73 0.0 0.0 0.00 0.00 0.00 55 1008.0
20260504175341 74 0.0 0.0 0.00 0.00 0.00 55 1007.9
20260504174841 74 0.0 0.0 0.00 0.00 0.00 58 1008.0
20260504174607 73 0.0 0.0 0.00 0.00 0.00 56 1007.9
20260504174112 73 0.0 0.0 0.00 0.00 0.00 56 1008.0
20260504173341 72 0.0 0.0 0.00 0.00 0.00 58 1008.1
20260504172841 71 0.0 0.0 0.00 0.00 0.00 58 1008.2
20260504172341 71 0.0 0.0 0.00 0.00 0.00 58 1008.2
20260504172008 71 0.0 0.0 0.00 0.00 0.00 60 1007.8
20260504171242 70 0.0 0.0 0.00 0.00 0.00 61 1007.0
20260504171007 70 0.0 0.0 0.00 0.00 0.00 61 1007.8
20260504170242 70 0.0 0.0 0.00 0.00 0.00 61 1008.2
20260504160143 69 0.0 0.0 0.00 0.00 0.00 58 1008.6
20260504151044 65 0.0 0.0 0.00 0.00 0.00 63 1008.9
20260504150545 64 0.0 0.0 0.00 0.00 0.00 67 1009.0
20260504140647 63 0.0 0.0 0.00 0.00 0.00 64 1009.0
20260504140146 62 0.0 0.0 0.00 0.00 0.00 64 1009.2
20260504130547 56 0.0 0.0 0.00 0.00 0.00 70 1009.5
20260504120248 53 0.0 0.0 0.00 0.00 0.00 70 1009.8
20260504110149 51 0.0 0.0 0.00 0.00 0.00 71 1009.5
20260504100450 50 0.0 0.0 0.00 0.00 0.00 70 1009.8
20260504081654 51 0.0 0.0 0.00 0.00 0.00 67 1010.4
20260504081152 51 0.0 0.0 0.00 0.00 0.00 67 1010.3
20260504080652 51 0.0 0.0 0.00 0.00 0.00 67 1010.4
20260504080152 51 0.0 0.0 0.00 0.00 0.00 67 1010.5
20260504050256 51 0.0 0.0 0.00 0.00 0.00 65 1012.0
20260504045756 52 0.0 0.0 0.00 0.00 0.00 64 1012.0
20260504045256 52 0.0 0.0 0.00 0.00 0.00 65 1012.0
20260504045021 51 0.0 0.0 0.00 0.00 0.00 65 1012.1
20260504044258 51 0.0 0.0 0.00 0.00 0.00 65 1012.1
20260504044241 51 0.0 0.0 0.00 0.00 0.00 65 1012.1
20260504043258 51 0.0 0.0 0.00 0.00 0.00 65 1012.1
20260504042756 51 0.0 0.0 0.00 0.00 0.00 65 1012.0
20260504042156 51 0.0 0.0 0.00 0.00 0.00 65 1012.1
20260504041918 51 0.0 0.0 0.00 0.00 0.00 65 1012.1
20260504041056 51 0.0 0.0 0.00 0.00 0.00 65 1012.2
20260504040556 51 0.0 0.0 0.00 0.00 0.00 65 1012.3
20260504040056 51 0.0 0.0 0.00 0.00 0.00 65 1012.5
20260504035558 51 0.0 0.0 0.00 0.00 0.00 65 1012.5
20260504035057 51 0.0 0.0 0.00 0.00 0.00 65 1012.6
20260504034558 51 0.0 0.0 0.00 0.00 0.00 65 1012.7
20260504034057 51 0.0 0.0 0.00 0.00 0.00 65 1012.7
20260504033557 51 0.0 0.0 0.00 0.00 0.00 64 1012.8
20260504033059 52 0.0 0.0 0.00 0.00 0.00 64 1012.8
20260504032458 52 0.0 0.0 0.00 0.00 0.00 63 1012.8
20260504031958 52 0.0 0.0 0.00 0.00 0.00 63 1012.7
20260504031719 52 0.0 0.0 0.00 0.00 0.00 63 1012.8
20260504030958 53 0.0 0.0 0.00 0.00 0.00 62 1012.8
20260504030459 53 0.0 0.0 0.00 0.00 0.00 62 1012.9
20260504025958 53 0.0 0.0 0.00 0.00 0.00 62 1012.9
20260504025500 53 0.0 0.0 0.00 0.00 0.00 62 1012.8
20260504024958 53 0.0 0.0 0.00 0.00 0.00 61 1012.9
20260504024458 54 0.0 0.0 0.00 0.00 0.00 61 1013.0
20260504024000 54 0.0 0.0 0.00 0.00 0.00 61 1013.0